Weather History for Ozona, TX

Change the Weather History Date:

Sunday, November 13, 2011

  Actual Average Record
Temperature  
Mean Temperature 60 °F -  
Max Temperature 81 °F 66 °F 81 °F (2011)
Min Temperature 40 °F 40 °F 26 °F (2013)
Degree Days  
Heating Degree Days 4    
Growing Degree Days 10 (Base 50)    
Moisture  
Dew Point 37 °F    
Average Humidity 50    
Maximum Humidity 76    
Minimum Humidity 18    
Precipitation  
Precipitation 0.00 in - - ()
Sea Level Pressure  
Sea Level Pressure 29.93 in    
Wind  
Wind Speed 3 mph (SSW)    
Max Wind Speed 15 mph    
Max Gust Speed 21 mph    
Visibility 10 miles    
Events      
Averages and records for this station are not official NWS values.
T = Trace of Precipitation, MM = Missing Value Source: NWS Daily Summary

Daily Weather History Graph

Daily Weather History Graph

Search for Another Location

Airport:

Trip Planner

Search our weather history database for the weather conditions in past years. The results will help you decide how hot, cold, wet, or windy it might be!

Date:

Astronomy

Nov. 13, 2011 Rise Set
Actual Time 7:09 AM CST 5:48 PM CST
Civil Twilight 6:43 AM CST 6:13 PM CST
Nautical Twilight 6:14 AM CST 6:42 PM CST
Astronomical Twilight 5:46 AM CST 7:11 PM CST
Moon 8:05 PM CST (11/13) 9:36 AM CST (11/13)
Length of Visible Light 11h 30m
Length of Day
10h 39m
Waning Gibbous, 92% of the Moon is Illuminated
Nov 13
Waning Gibbous
Nov 18
Last Quarter
Nov 25
New
Dec 2
First Quarter
Dec 10
Full

Hourly Weather History & Observations

Time (CST) Temp. Windchill Dew Point Humidity Pressure Visibility Wind Dir Wind Speed Gust Speed Precip Events Conditions
12:15 AM 46.4 °F - 33.4 °F 61% 29.97 in 10.0 mi Calm Calm - N/A   Clear
12:35 AM 45.1 °F - 33.1 °F 63% 29.98 in 10.0 mi Calm Calm - N/A   Clear
12:55 AM 43.5 °F - 31.6 °F 63% 29.98 in 10.0 mi Calm Calm - N/A   Clear
1:15 AM 43.9 °F - 32.2 °F 63% 29.97 in 10.0 mi Calm Calm - N/A   Clear
1:35 AM 43.5 °F - 32.2 °F 64% 29.97 in 10.0 mi Calm Calm - N/A   Clear
1:55 AM 43.3 °F - 32.7 °F 66% 29.97 in 10.0 mi Calm Calm - N/A   Clear
2:15 AM 42.6 °F - 32.0 °F 66% 29.97 in 10.0 mi Calm Calm - N/A   Clear
2:35 AM 42.8 °F - 32.7 °F 68% 29.97 in 10.0 mi Calm Calm - N/A   Clear
2:55 AM 42.6 °F - 32.5 °F 68% 29.97 in 10.0 mi Calm Calm - N/A   Clear
3:15 AM 42.4 °F 40.7 °F 32.5 °F 68% 29.97 in 10.0 mi NNE 3.5 mph - N/A   Clear
3:35 AM 42.4 °F - 33.4 °F 70% 29.97 in 10.0 mi Calm Calm - N/A   Clear
3:55 AM 43.3 °F - 35.2 °F 73% 29.96 in 10.0 mi Calm Calm - N/A   Clear
4:15 AM 42.3 °F 40.5 °F 34.3 °F 74% 29.95 in 10.0 mi South 3.5 mph - N/A   Clear
4:35 AM 41.9 °F - 34.3 °F 75% 29.95 in 10.0 mi Calm Calm - N/A   Clear
4:55 AM 43.0 °F - 34.5 °F 72% 29.95 in 10.0 mi Calm Calm - N/A   Clear
5:15 AM 42.1 °F - 32.7 °F 69% 29.95 in 10.0 mi Calm Calm - N/A   Clear
5:35 AM 41.7 °F 39.8 °F 32.9 °F 71% 29.95 in 10.0 mi SSW 3.5 mph - N/A   Clear
5:55 AM 41.2 °F - 33.1 °F 73% 29.95 in 10.0 mi Calm Calm - N/A   Clear
6:15 AM 41.4 °F - 32.9 °F 72% 29.95 in 10.0 mi Calm Calm - N/A   Clear
6:35 AM 40.6 °F - 32.5 °F 73% 29.95 in 10.0 mi Calm Calm - N/A   Clear
6:55 AM 40.8 °F 38.8 °F 32.9 °F 73% 29.95 in 10.0 mi South 3.5 mph - N/A   Clear
7:15 AM 41.5 °F - 34.5 °F 76% 29.95 in 10.0 mi Calm Calm - N/A   Clear
7:35 AM 42.8 °F - 34.0 °F 71% 29.95 in 10.0 mi Calm Calm - N/A   Clear
7:55 AM 45.1 °F 43.7 °F 36.0 °F 70% 29.95 in 10.0 mi South 3.5 mph - N/A   Clear
8:15 AM 49.1 °F - 39.7 °F 70% 29.96 in 10.0 mi South 3.5 mph - N/A   Clear
8:35 AM 55.0 °F - 45.3 °F 70% 29.97 in 10.0 mi South 3.5 mph - N/A   Clear
8:55 AM 59.9 °F - 48.7 °F 67% 29.97 in 10.0 mi South 4.6 mph - N/A   Clear
9:15 AM 62.4 °F - 49.5 °F 63% 29.97 in 10.0 mi SSW 6.9 mph - N/A   Clear
9:55 AM 65.3 °F - 50.7 °F 59% 29.97 in 10.0 mi South 11.5 mph - N/A   Clear
10:15 AM 66.2 °F - 50.4 °F 57% 29.97 in 10.0 mi South 10.4 mph - N/A   Clear
10:55 AM 71.8 °F - 45.3 °F 39% 29.97 in 10.0 mi SW 9.2 mph - N/A   Clear
11:15 AM 73.6 °F - 42.3 °F 32% 29.96 in 10.0 mi SSW 9.2 mph - N/A   Clear
11:35 AM 75.0 °F - 42.6 °F 31% 29.96 in 10.0 mi SW 10.4 mph 17.3 mph N/A   Clear
11:55 AM 75.9 °F - 41.5 °F 29% 29.95 in 10.0 mi SW 10.4 mph - N/A   Clear
12:15 PM 77.2 °F - 41.2 °F 28% 29.94 in 10.0 mi SSW 11.5 mph 17.3 mph N/A   Clear
12:35 PM 78.3 °F - 40.1 °F 25% 29.93 in 10.0 mi South 11.5 mph - N/A   Clear
12:55 PM 79.2 °F - 40.3 °F 25% 29.92 in 10.0 mi SSW 12.7 mph 19.6 mph N/A   Clear
1:15 PM 79.9 °F - 39.2 °F 23% 29.90 in 10.0 mi SSW 12.7 mph - N/A   Clear
1:35 PM 80.6 °F - 37.8 °F 22% 29.89 in 10.0 mi SSW 10.4 mph 19.6 mph N/A   Clear
1:55 PM 81.1 °F - 37.0 °F 21% 29.88 in 10.0 mi SSW 11.5 mph 18.4 mph N/A   Clear
2:15 PM 80.6 °F - 36.7 °F 21% 29.88 in 10.0 mi SW 12.7 mph 19.6 mph N/A   Clear
2:35 PM 81.7 °F - 34.9 °F 19% 29.87 in 10.0 mi SSW 10.4 mph 19.6 mph N/A   Clear
2:55 PM 81.7 °F - 34.3 °F 18% 29.86 in 10.0 mi SSW 12.7 mph - N/A   Clear
3:15 PM 81.1 °F - 35.2 °F 19% 29.86 in 10.0 mi SSW 13.8 mph 19.6 mph N/A   Clear
3:35 PM 80.8 °F - 35.8 °F 20% 29.85 in 10.0 mi SSW 11.5 mph - N/A   Clear
3:55 PM 80.8 °F - 36.3 °F 20% 29.85 in 10.0 mi South 15.0 mph 19.6 mph N/A   Clear
4:15 PM 80.4 °F - 34.2 °F 19% 29.86 in 10.0 mi SSW 12.7 mph 20.7 mph N/A   Clear
5:15 PM 78.6 °F - 34.0 °F 20% 29.86 in 10.0 mi SSW 12.7 mph - N/A   Clear
5:35 PM 77.4 °F - 35.1 °F 22% 29.86 in 10.0 mi SSW 10.4 mph 16.1 mph N/A   Clear
5:55 PM 75.4 °F - 37.8 °F 26% 29.86 in 10.0 mi South 6.9 mph - N/A   Clear
6:15 PM 73.4 °F - 41.4 °F 31% 29.87 in 10.0 mi South 5.8 mph - N/A   Clear
6:35 PM 71.4 °F - 43.5 °F 37% 29.87 in 10.0 mi South 8.1 mph - N/A   Clear
6:55 PM 70.9 °F - 45.5 °F 40% 29.88 in 10.0 mi South 9.2 mph - N/A   Clear
7:15 PM 70.5 °F - 45.7 °F 41% 29.88 in 10.0 mi South 8.1 mph - N/A   Clear
7:35 PM 69.4 °F - 45.7 °F 42% 29.89 in 10.0 mi South 4.6 mph - N/A   Clear
7:55 PM 68.5 °F - 45.7 °F 44% 29.89 in 10.0 mi Calm Calm - N/A   Clear
8:15 PM 67.6 °F - 45.9 °F 46% 29.90 in 10.0 mi SSW 3.5 mph - N/A   Clear
8:35 PM 66.6 °F - 45.9 °F 47% 29.90 in 10.0 mi SSW 6.9 mph - N/A   Clear
8:55 PM 66.0 °F - 45.9 °F 48% 29.90 in 10.0 mi SW 4.6 mph - N/A   Clear
9:15 PM 65.3 °F - 45.9 °F 49% 29.91 in 10.0 mi SW 4.6 mph - N/A   Clear
9:35 PM 65.3 °F - 45.9 °F 49% 29.92 in 10.0 mi WSW 5.8 mph - N/A   Clear
9:55 PM 64.6 °F - 45.7 °F 50% 29.92 in 10.0 mi West 5.8 mph - N/A   Clear
10:15 PM 61.3 °F - 45.0 °F 55% 29.92 in 10.0 mi Calm Calm - N/A   Clear
10:35 PM 59.0 °F - 44.6 °F 59% 29.93 in 10.0 mi North 3.5 mph - N/A   Clear
10:55 PM 58.1 °F - 44.4 °F 60% 29.93 in 10.0 mi NNE 4.6 mph - N/A   Clear
11:35 PM 55.2 °F - 43.3 °F 64% 29.93 in 10.0 mi NNE 3.5 mph - N/A   Clear
11:55 PM 54.0 °F - 42.8 °F 66% 29.92 in 10.0 mi Calm Calm - N/A   Clear